User: anonymous   Login
Location: Stigler
(35.2540°N, 95.1230°W)
Time: 22:29:44
(UTC-05:00)
Language:

Cosmos 1805 - Orbit

View from above orbital plane
View from above orbital plane
View from above satellite
View from above satellite

Ground track
Ground track

The orbit data is extracted from the following two-line orbital elements,

1 17191U 86097A   15208.45278105  .00000867  00000-0  51427-4 0  9991
2 17191 082.4797 349.0570 0004649 299.9694 060.1073 15.10114085559335
Epoch (UTC): 27 July 2015 10:52:00
Eccentricity: 0.0004649
inclination: 82.4797°
perigee height: 532 km
apogee height: 539 km
right ascension of ascending node: 349.0570°
argument of perigee: 299.9694°
revolutions per day: 15.10114085
mean anomaly at epoch: 60.1073°
orbit number at epoch: 55933

The dashed part of the orbit path shows where the satellite is in the earth's shadow,  

DLR